Regional Weather Roundup
Issued by NWS

Home | Current Version | Previous Version | Graphics & Text | Print | Product List | Glossary On
Versions: 1 2 3 4 5 6 7 8 9 10 11 12 13 14 15 16 17 18 19 20 21 22 23 24 25 26 27 28 29 30 31 32 33 34 35 36 37 38 39 40 41 42 43 44 45 46 47 48 49 50
000
ASUS45 KABQ 192201
RWRNM
WEATHER ROUNDUP FOR NEW MEXICO
NATIONAL WEATHER SERVICE ALBUQUERQUE NM
400 PM MDT TUE AUG 19 2014

NOTE: "FAIR" MEANS FEW OR NO CLOUDS BELOW 12,000 FEET AGL WITH NO
       SIGNIFICANT WEATHER OR OBSTRUCTIONS TO VISION.

      THIS PRODUCT IS RELEASED AS TWO VERSIONS.  ONE VERSION NEAR
      THE TOP OF THE HOUR CONTAINING PRELIMINARY DATA FROM ALBUQUERQUE
      AND OTHER STATIONS.  A FINAL VERSION WITH ADDITIONAL DATA IS
      ISSUED ABOUT 10 MINUTES AFTER THE HOUR.

NMZ501-503-504-510>518-192300-
NORTHWEST PLATEAU/NORTHCENTRAL MOUNTAINS

CITY           SKY/WX    TMP DP  RH WIND       PRES   REMARKS
FARMINGTON     PTSUNNY   81  43  26 SW15      29.96F
SANTA FE       PTSUNNY   83  41  22 S8        30.03F
TAOS           PTSUNNY   81  39  22 SE14      30.08F
ANGEL FIRE     MOCLDY    65  49  55 SE16      30.22F

$$
NMZ402-403-502-505>509-192300-
WESTCENTRAL MOUNTAINS/SOUTHWEST MOUNTAINS

CITY           SKY/WX    TMP DP  RH WIND       PRES   REMARKS
GALLUP         CLOUDY    71  54  54 W15       30.09F
SILVER CITY    PTSUNNY   81  55  41 MISG      30.04F

$$
NMZ407-409-411-412-192300-
SOUTHERN DESERTS

CITY           SKY/WX    TMP DP  RH WIND       PRES   REMARKS
LORDSBURG      RAIN      64  63  94 SW14      30.04S
DEMING         LGT RAIN  79  61  53 W35G45    29.96S VSB 3/4
ALAMOGORDO     MOSUNNY   93  50  22 S13       29.88F
T OR C         MOSUNNY   87  48  25 W6        29.93F

$$
NMZ519>523-192300-
CENTRAL VALLEYS/CENTRAL HIGHLANDS

CITY           SKY/WX    TMP DP  RH WIND       PRES   REMARKS
ALBUQUERQUE    PTSUNNY   89  39  17 SW17      29.96F
DOUBLE EAGLE   PTSUNNY   88  39  18 S10G18    30.00F
CLINES CORNERS MOSUNNY   79  46  31 S10       30.09F
BELEN          FAIR      85  44  23 W10G17    29.95F
SOCORRO        NOT AVBL

$$
NMZ524>526-539-540-192300-
SOUTHCENTRAL MOUNTAINS

CITY           SKY/WX    TMP DP  RH WIND       PRES   REMARKS
RUIDOSO        NOT AVBL

$$
NMZ527>531-192300-
NORTHEAST HIGHLANDS/NORTHEAST PLAINS

CITY           SKY/WX    TMP DP  RH WIND       PRES   REMARKS
LAS VEGAS      PTSUNNY   81  43  26 S13       30.08F
RATON          PTSUNNY   80  41  24 W14G28    30.01F
CLAYTON        MOSUNNY   93  40  15 S14G23    29.93F

$$
NMZ532>537-192300-
EASTCENTRAL PLAINS

CITY           SKY/WX    TMP DP  RH WIND       PRES   REMARKS
TUCUMCARI      MOSUNNY   97  46  17 E6        29.85F
CANNON AFB     NOT AVBL
CLOVIS AIRPORT   N/A     90  54  29 SW8G16    29.93F

$$
NMZ028-029-538-192300-
SOUTHEAST PLAINS

CITY           SKY/WX    TMP DP  RH WIND       PRES   REMARKS
ROSWELL        SUNNY     94  48  20 E7        29.85F
ARTESIA        MOSUNNY   93  50  22 S6        29.84F
CARLSBAD       SUNNY     96  51  21 S12G18    29.81F
HOBBS          PTSUNNY   93  52  24 SE12      29.88F


$$


USA.gov is the U.S. government's official web portal to all federal, state and local government web resources and services.